Regional Weather Roundup
Issued by NWS State College, PA

Home | Current Version | Previous Version | Text Only | Print | Product List | Glossary On
Versions: 1 2 3 4 5 6 7 8 9 10 11 12 13 14 15 16 17 18 19 20 21 22 23 24 25 26 27 28 29 30 31 32 33 34 35 36 37 38 39 40 41 42 43 44 45 46 47 48 49 50
000
ASUS41 KCTP 271003
RWRCTP

REGIONAL WEATHER ROUNDUP
NATIONAL WEATHER SERVICE STATE COLLEGE PA
500 AM EST FRI FEB 27 2015

Note: "fair" indicates few or no clouds below 12,000 feet with no
significant weather and/or obstructions to visibility.

* = STATION THAT DOES NOT REPORT PRECIPITATION /E.G. RAIN...SNOW...ETC/
    THUNDER OR FOG.

PAZ002>004-007>009-013>016-020>023-029>032-271100-
WESTERN PENNSYLVANIA

CITY           SKY/WX    TMP DP  RH WIND       PRES   REMARKS
ERIE           CLOUDY    -1  -6  79 CALM      30.37R
MEADVILLE        N/A     -1  -7  75 CALM      30.27R
FRANKLIN*      CLEAR      0  -6  78 CALM      30.27R
NEW CASTLE     FAIR       0  -3  87 CALM      30.36R
BEAVER COUNTY  NOT AVBL
BUTLER*        CLEAR      1   0  92 CALM      30.32R
PITTSBURGH INT PTCLDY     4   1  88 CALM      30.32R
PITTSBURGH     MOCLDY     5  -2  72 NW9       30.30R HAZE    WCI  -9
INDIANA*       CLOUDY     7   5  92 W5        30.31R WCI  -2
LATROBE        PTCLDY     7   3  85 CALM      30.33R
WASHINGTON CO* PTCLDY     7   0  72 CALM      30.33R
$$

PAZ004>006-010>012-017>019-024>028-033>037-041-042-045-046-049>053-271100-
CENTRAL PENNSYLVANIA

CITY           SKY/WX    TMP DP  RH WIND       PRES   REMARKS
BRADFORD       PTCLDY    -1  -6  79 NW5       30.17R WCI -11
DUBOIS         CLEAR      2  -3  80 W5        30.21R WCI  -8
CLEARFIELD     MOCLDY     7   1  76 NW3       30.24R
JOHNSTOWN      LGT SNOW   5   1  83 NW7       30.15R FOG     WCI  -7
ALTOONA        CLOUDY    11   2  67 W8        30.23R WCI  -1
STATE COLLEGE  LGT SNOW  13  10  87 N3        30.24R
WILLIAMSPORT   CLOUDY    13   2  61 NW5       30.31R WCI   5
SELINSGROVE    MOCLDY    14   6  70 N6        30.31R WCI   5
FT INDIANTOWN  CLOUDY    18   9  68 VRB6      30.26R WCI   9
CAPITAL CITY   CLOUDY    19  10  68 NW9       30.28R WCI   8
HARRISBURG     LGT SNOW  21  13  71 NW9       30.27R WCI  11
YORK           LGT SNOW  23  17  78 N8        30.25R WCI  14
$$

PAZ038>040-043-044-047-048-054-055-060>062-067>071-271100-
EASTERN PENNSYLVANIA

CITY           SKY/WX    TMP DP  RH WIND       PRES   REMARKS
SCRANTON       CLOUDY    10   1  67 N8        30.25R WCI  -2
MOUNT POCONO   MOCLDY     5   0  79 NW9       30.12R WCI  -9
ALLENTOWN      CLOUDY    17   6  62 NW3       30.26R
QUAKERTOWN*    CLOUDY    18  10  73 N7        30.25R WCI   8
READING        CLOUDY    19   7  59 N12       30.27R WCI   7
LANCASTER      CLOUDY    22  14  71 NE9       30.25R WCI  12
COATESVILLE    LGT SNOW  23  19  86 N7        30.23R WCI  15
POTTSTOWN      CLOUDY    20  12  71 N3        30.27R
BLUE BELL      CLOUDY    23  14  68 N3        30.25R
DOYLESTOWN     CLOUDY    19  11  70 N9        30.24R WCI   8
WILLOW GROVE   NOT AVBL
NORTH PHILA    CLOUDY    24  11  57 N10       30.28R WCI  14
PHILADELPHIA   CLOUDY    25  15  66 N10       30.28R WCI  15
$$



USA.gov is the U.S. government's official web portal to all federal, state and local government web resources and services.